sat.trackr.live / text

‹ back to catalog

STARLINK-32738

NORAD 63046 · 2025-034T

PAYLOAD ACTIVE UNKNOWN

§ Identity

Operator
Country
US
Launch date
2025-02-18
Launch site
AFETR
Launch vehicle
Mass (kg)
RCS (m²)

Purposes: comms

External: N2YO · Heavens-Above · Gunter

§ Orbital elements

Epoch: 2026-09-21T21:12:57.040128Z

Period
93.85 min
Inclination
53.1588°
Eccentricity
0.0001084
Mean motion
15.34406107 rev/d
Perigee alt
461.9 km
Apogee alt
463.4 km
Semi-major
6,840.8 km
B*
5.3963e-4
RAAN
63.3750°
Arg perigee
105.9612°
Mean anomaly
254.1510°
Rev number
8,917

§ Raw data

STARLINK-327381 63046U 25034T   26264.88399352  .00017903  00000+0  53963-3 0  99982 63046  53.1588  63.3750 0001084 105.9612 254.1510 15.34406107 89176

JSON: /api/v1/satellites/63046 · /tle

For live sub-satellite position, see the globe view (requires WebGL).

§ Visibility from observer

Set your observer location to see the next 7 days of passes ≥ 10°. The values pass through the URL so the page stays shareable.

No JS? Fill the form by hand. The geolocation button needs JavaScript.